Home   Weather   Hamm   Past weeks

Flag for Germany Past Weather in Hamm, North Rhine-Westphalia, Germany — Yesterday and Last 2 Weeks

Now
46 °F

Drizzle. Low clouds.


Feels Like: 39 °F
Forecast: 45 / 50 °F
Wind: 18 mph from Southwest

Location: Dortmund / Wickede

Current Time: Feb 20, 2017 at 2:50:12 pm

Latest Report: Feb 20, 2017 at 2:20 pm


Visibility: 6 mi

Pressure: 29.95 "Hg

Humidity: 87%

Dew Point: 43 °F

Location of HammLocation

Past Weather in Hamm — Graph

°F

Hamm Temperature Yesterday

Maximum temperature yesterday: 45 °F (at 11:50 am)
Minimum temperature yesterday: 36 °F (at 5:20 am)
Average temperature yesterday: 41 °F

High & Low Weather Summary for the Past Weeks

 TemperatureHumidityPressure
High61 °F (Feb 15, 2:50 pm)93% (Feb 6, 5:50 am)30.51 "Hg (Feb 6, 5:50 am)
Low27 °F (Feb 9, 7:20 am)29% (Feb 15, 2:50 pm)29.59 "Hg (Feb 5, 1:20 pm)
Average37 °F75%30.22 "Hg
* Reported Feb 5 1:20 pm — Feb 20 1:20 pm, Hamm, Weather by CustomWeather, © 2017

Note: Actual official high and low records may vary slightly from our data, if they occured in-between our weather recording intervals... More about our weather records

Advertising

Hamm Weather History for the Previous 24 Hours

Scroll right to see more
 ConditionsComfort  
Time TempWeatherWind HumidityBarometerVisibility
1:20 pm
Mon, Feb 20
46 °FDrizzle. Overcast.20 mph87%29.98 "Hg5 mi
12:50 pm46 °FLow clouds.18 mph87%29.98 "Hg6 mi
12:20 pm46 °FDrizzle. Fog.17 mph87%29.98 "Hg2 mi
11:50 am46 °FLow clouds.18 mph82%30.01 "HgN/A
11:20 am46 °FPartly sunny.17 mph82%30.01 "HgN/A
10:50 am45 °FPartly sunny.16 mph87%30.01 "Hg6 mi
10:20 am45 °FLow clouds.17 mph87%30.01 "Hg6 mi
9:50 am45 °FLow clouds.16 mph87%30.01 "HgN/A
9:20 am45 °FFog.17 mph87%30.04 "Hg2 mi
8:50 am45 °FFog.14 mph81%30.04 "Hg3 mi
8:20 am45 °FOvercast.14 mph81%30.04 "Hg4 mi
7:50 am45 °FLow clouds.14 mph81%30.04 "Hg5 mi
7:20 am43 °FLow clouds.15 mph87%30.07 "Hg5 mi
6:50 am43 °FLow clouds.14 mph87%30.04 "Hg4 mi
6:20 am43 °FPassing clouds.14 mph87%30.07 "Hg5 mi
5:50 am43 °FPartly cloudy.13 mph87%30.07 "Hg5 mi
5:20 am43 °FPassing clouds.10 mph87%30.07 "Hg4 mi
9:50 pm
Sun, Feb 19
41 °FFog.7 mph93%30.12 "Hg3 mi
9:20 pm43 °FFog.8 mph87%30.12 "Hg2 mi
8:50 pm43 °FFog.9 mph87%30.12 "Hg3 mi
8:20 pm41 °FFog.8 mph93%30.12 "Hg2 mi
7:50 pm41 °FFog.7 mph93%30.12 "Hg3 mi
7:20 pm41 °FFog.7 mph93%30.12 "Hg2 mi
6:50 pm41 °FFog.8 mph93%30.12 "Hg2 mi
6:20 pm41 °FLight rain. Fog.9 mph93%30.12 "Hg3 mi
5:50 pm41 °FLight rain. Fog.9 mph87%30.09 "Hg3 mi
5:20 pm41 °FLight rain. Fog.8 mph87%30.09 "Hg2 mi
4:50 pm41 °FLight rain. Fog.10 mph87%30.09 "Hg2 mi
4:20 pm41 °FLight rain. Fog.10 mph87%30.09 "Hg3 mi
3:50 pm43 °FLight rain. Fog.10 mph81%30.09 "Hg3 mi
3:20 pm43 °FLight rain. Overcast.10 mph81%30.09 "Hg4 mi
2:50 pm43 °FLight rain. Low clouds.10 mph81%30.09 "Hg4 mi
2:20 pm43 °FLight rain. Partly sunny.12 mph81%30.09 "Hg6 mi
Weather by CustomWeather, © 2017

See weather overviewHow to use our weather pages